Starlink 11605

operational
NORAD ID: 63134 Int'l Des: 2025-043 Owner: SPXS Country: US Constellation: starlink
LEOCIRCULAR

Über Starlink 11605

Beschreibung wird geladen...

Live-Position

3D-Globus wird geladen...

Nächste Überflüge

Höhenverlauf

Altitude vs Time

uPlot chart will show altitude changes over time

Zweizeiliger Elementsatz

1 63134U 25043C 25351.81726639 .00284310 00000-0 21408-2 0 9994
2 63134 43.0002 24.4044 0000652 336.8341 23.2497 15.70877583 46476
Epoch: 17. Dez. 2025 • Age: 15 hours

Aktueller Status

Höhe 368.6 km
Geschwindigkeit 7.69 km/s
Subsatellitenpunkt -43.10°S, 42.4°E
Startdatum 3. März 2025
Alter 0.7 years
Typ internet

Technische Details

Klassifizierung Payload
Masse 960.00 kg
Trockenmasse 910.00 kg
Gesamtmasse 960.00 kg
Länge 0.30 m
Durchmesser 4.10 m
Spannweite 29.00 m
Form Box + pan
Hersteller SPXS
Bus-Typ Starlink V2MD
Phasenstatus In Orbit
Besitzer/Staat SPXS/US

Große Konstellationen

Loading constellations...